This is the latest recevied weather packets stored in our database for station/object K3CHZ. If no packets are shown the sender has not sent any weather packets the latest 10 day(s).
| Time | Temp. | Humidity | Pressure | Rain* | Wind** | Luminosity | Snow |
|---|---|---|---|---|---|---|---|
| 1777677138 | 16.11° C | 44% | 1010.2 hPa | 0 mm | - | - | - |
| 1777676842 | 16.11° C | 44% | 1010.2 hPa | 0 mm | - | - | - |
| 1777676539 | 16.11° C | 45% | 1010.2 hPa | 0 mm | - | - | - |
| 1777676239 | 16.67° C | 46% | 1010.3 hPa | 0 mm | - | - | - |
| 1777675939 | 16.11° C | 44% | 1010.3 hPa | 0 mm | - | - | - |
| 1777675639 | 16.11° C | 45% | 1010.3 hPa | 0 mm | - | - | - |
| 1777675340 | 16.67° C | 47% | 1010.2 hPa | 0 mm | - | - | - |
| 1777675041 | 16.67° C | 45% | 1010.1 hPa | 0 mm | - | - | - |
| 1777674739 | 16.67° C | 43% | 1010.1 hPa | 0 mm | - | - | - |
| 1777674441 | 16.67° C | 44% | 1010.3 hPa | 0 mm | - | - | - |
| 1777674142 | 16.67° C | 43% | 1010.1 hPa | 0 mm | - | - | - |
| 1777673842 | 16.67° C | 42% | 1010.2 hPa | 0 mm | - | - | - |
| 1777673542 | 17.22° C | 43% | 1010.2 hPa | 0 mm | - | - | - |
| 1777673242 | 17.22° C | 42% | 1010.3 hPa | 0 mm | - | - | - |
| 1777672942 | 17.22° C | 42% | 1010.4 hPa | 0 mm | - | - | - |
| 1777672642 | 17.22° C | 44% | 1010.4 hPa | 0 mm | - | - | - |
| 1777672342 | 17.22° C | 40% | 1010.4 hPa | 0 mm | - | - | - |
| 1777672044 | 17.22° C | 41% | 1010.4 hPa | 0 mm | - | - | - |
| 1777671742 | 17.22° C | 42% | 1010.5 hPa | 0 mm | - | - | - |
| 1777671442 | 17.22° C | 40% | 1010.5 hPa | 0 mm | - | - | - |
| 1777671142 | 17.22° C | 41% | 1010.5 hPa | 0 mm | - | - | - |
| 1777670842 | 17.22° C | 39% | 1010.7 hPa | 0 mm | - | - | - |
| 1777670542 | 17.22° C | 39% | 1010.7 hPa | 0 mm | - | - | - |
| 1777670242 | 17.22° C | 38% | 1010.7 hPa | 0 mm | - | - | - |
| 1777669941 | 17.22° C | 39% | 1010.6 hPa | 0 mm | - | - | - |
* Rain latest hour (hover to see other rain measurements)
** Current wind speed in m/s (hover to see current wind gust speed)